Location: Brivio
(45.7333°N, 9.4500°E)
Time: 20:15:04
(UTC+00:00)

N. Korean satellite - Pass Details

Date: 13 December 2019
Orbit: 454 x 507 km, 97.2° (Epoch: 28 January)

Event Time Altitude Azimuth Distance (km) Brightness Sun altitude
Rises 05:17:01 0° 12° (NNE) 2,542 10.2 -16.2°
Reaches altitude 10° 05:19:06 10° 13° (NNE) 1,649 9.2 -15.8°
Maximum altitude 05:22:38 86° 100° (E) 475 6.5 -15.2°
Drops below altitude 10° 05:26:06 10° 192° (SSW) 1,608 9.3 -14.7°
Sets 05:28:07 0° 193° (SSW) 2,471 10.2 -14.3°
